Wind_Speed
69 67 66 64 64 64 64 65 65 65 65 65 66 65 65 62 59 58 57 54 53 54 54 55 56 56 56 57 57 56 55 54 52 51 49 49 47 47 47 45 45 44 42 41 40 40 40 39 37 35 33 32 33 35 36 38 41 43 44 46 46 47 50 52 52 53 54 53 53 54 57 61 66 68 66 64 64 63 61 60 57 56 56 56 56 57 55
69 67 65 64 64 64 65 65 66 66 65 66 65 64 64 62 59 57 56 54 52 53 54 55 56 56 57 58 58 57 56 56 54 51 50 49 48 48 47 46 45 44 43 42 42 41 41 40 38 36 35 34 34 35 37 38 40 41 43 44 44 46 50 52 52 53 54 53 54 55 57 60 64 67 67 66 66 65 64 63 60 60 60 58 58 59 56
66 64 63 63 62 63 64 65 66 66 65 65 65 64 63 61 59 57 55 53 52 52 53 54 56 57 58 58 58 58 57 56 54 51 49 48 48 48 48 47 46 45 44 43 43 43 42 41 39 38 37 36 36 37 38 39 39 40 42 43 44 45 48 49 51 53 56 58 58 59 59 59 61 63 65 67 67 67 67 66 65 66 65 62 61 60 55
64 62 61 61 60 61 62 63 64 65 65 65 65 64 62 59 57 55 55 53 51 51 52 53 55 56 57 58 59 58 57 56 54 52 50 49 49 49 49 48 47 45 44 44 45 44 43 41 40 39 39 39 39 40 40 40 40 40 42 43 44 45 47 48 50 53 55 57 58 56 54 54 57 58 61 64 67 68 68 67 68 68 66 65 62 57 52
62 61 60 60 59 59 61 61 62 63 63 63 62 61 60 57 54 52 52 53 51 50 51 52 54 56 57 58 59 58 57 56 54 52 50 49 49 50 50 49 47 46 45 45 45 44 44 42 40 40 41 41 42 42 42 41 41 41 42 43 44 45 46 47 48 50 51 52 53 51 48 48 50 52 54 57 61 64 65 67 67 65 66 66 59 53 52
62 61 60 59 59 59 60 60 60 61 61 60 59 58 56 54 52 50 50 51 52 51 50 51 53 55 56 57 58 57 56 55 54 53 51 50 50 51 50 49 47 46 45 45 46 45 45 44 42 42 43 44 44 43 43 42 42 43 43 43 43 43 44 45 46 48 48 47 48 48 47 45 44 46 49 51 55 59 62 64 64 64 67 64 56 51 52
62 62 61 60 59 58 58 58 58 58 58 57 57 55 54 52 51 50 49 49 50 51 51 51 53 55 56 57 57 56 55 54 54 53 52 50 50 51 50 49 48 47 47 48 48 47 47 46 44 44 45 45 45 44 43 42 43 44 44 44 43 42 42 43 44 45 45 44 43 44 45 45 43 44 45 46 50 55 57 59 60 62 64 61 56 54 51
63 62 61 60 59 58 58 57 56 56 55 54 53 53 52 51 49 49 48 48 49 50 51 52 53 54 56 56 56 55 55 54 53 52 51 50 50 50 50 50 49 49 49 49 49 48 47 46 44 44 46 47 46 45 43 42 42 42 44 45 44 42 42 42 43 44 44 42 40 40 41 42 43 45 45 45 47 51 54 55 57 60 61 58 57 57 53
60 60 60 59 58 57 57 56 55 54 53 52 51 50 49 49 48 48 47 48 49 50 50 51 53 54 55 56 55 54 54 54 53 52 51 50 50 50 51 50 50 50 50 49 49 48 48 47 46 46 47 48 49 47 44 44 44 43 44 47 47 44 43 42 42 43 43 40 38 39 39 39 42 45 47 46 48 50 53 54 56 58 58 57 58 58 55
56 56 57 57 56 55 55 54 53 53 52 50 49 48 48 47 47 47 46 47 48 49 50 51 52 53 54 55 55 53 53 53 53 52 51 50 50 50 51 51 51 50 50 50 50 50 49 48 47 48 48 48 50 49 47 45 46 46 47 48 49 48 46 43 42 44 43 40 39 40 39 40 45 49 50 49 49 51 53 54 56 57 57 58 58 57 53
49 50 50 51 51 51 51 51 51 51 50 49 48 48 47 46 45 45 45 44 45 47 49 50 51 52 53 54 54 52 51 52 52 52 51 50 49 50 50 51 51 50 50 51 51 50 49 49 48 49 49 49 49 50 50 48 47 49 50 48 47 48 49 46 43 43 44 42 41 42 43 45 50 52 51 50 50 50 52 54 56 56 56 57 56 54 52
42 43 43 43 45 47 47 48 48 48 48 48 47 47 46 45 44 43 43 42 42 44 47 49 50 51 52 54 54 51 50 51 52 52 50 49 49 49 50 51 51 50 50 50 50 50 49 49 49 49 49 49 49 50 52 51 50 50 52 49 45 46 48 48 44 43 44 44 42 44 46 47 49 50 49 49 49 49 51 53 55 55 55 56 54 52 52
37 37 36 36 38 40 42 43 44 45 46 46 45 45 45 44 44 43 42 41 40 41 44 47 48 49 50 52 54 52 50 50 51 51 50 48 48 49 50 51 51 50 49 49 49 49 49 49 49 50 50 49 49 50 52 54 52 52 53 54 52 48 46 47 46 43 44 45 45 47 47 47 47 47 46 46 48 49 51 53 56 57 56 56 54 52 51
32 32 32 32 32 34 36 38 39 41 42 43 43 43 43 42 42 42 42 41 39 39 41 43 46 47 47 49 52 52 49 49 51 51 50 48 48 48 49 50 50 49 49 49 49 49 48 49 50 50 50 51 50 50 52 53 55 55 55 56 57 52 47 46 47 45 45 47 49 49 48 47 47 47 45 45 47 49 51 53 55 57 57 55 53 50 49
29 28 28 28 28 29 30 32 34 36 37 38 39 39 40 39 39 39 39 40 38 37 38 41 43 45 45 45 47 49 48 48 50 51 50 49 48 47 46 48 49 49 49 49 48 48 48 49 50 49 50 52 51 50 50 51 54 57 58 58 59 56 51 48 48 47 47 49 51 50 49 48 47 46 45 43 44 46 48 52 55 56 56 54 51 49 48
26 25 25 24 24 25 26 27 29 32 33 34 35 36 36 36 36 36 37 37 37 35 36 39 41 43 43 43 44 46 46 45 47 49 49 49 49 47 46 47 47 48 50 49 48 47 46 47 49 49 50 51 50 49 49 49 51 56 58 60 60 58 53 49 49 49 48 50 51 50 49 49 47 45 42 41 42 42 43 49 55 56 54 52 49 47 45
24 23 22 21 21 22 23 24 26 28 29 30 31 33 34 33 33 33 34 35 34 33 34 37 40 41 42 42 43 44 44 44 44 46 48 48 48 48 47 47 46 46 48 49 48 47 44 44 46 47 47 48 49 50 49 48 49 52 55 58 60 60 56 51 49 50 49 49 48 47 48 48 47 45 41 38 37 37 40 48 55 54 50 48 46 44 42
23 22 21 19 19 20 21 22 23 24 25 27 27 29 30 30 30 31 31 32 31 31 33 36 38 39 40 41 42 42 42 42 42 43 45 46 47 47 46 47 47 46 46 46 47 48 46 44 44 44 43 44 45 48 49 48 49 49 50 53 56 57 57 54 51 51 51 47 43 42 45 47 45 43 41 36 32 34 41 49 52 49 47 46 43 41 40
22 21 20 18 18 18 18 18 20 21 22 23 24 25 26 27 27 28 29 29 29 29 32 34 36 37 38 39 40 40 41 40 40 41 43 43 45 46 46 45 46 47 47 45 45 47 47 45 44 43 43 42 42 44 46 47 48 46 46 48 51 52 54 55 53 53 52 48 42 40 41 43 43 41 38 35 33 34 38 43 46 47 46 45 43 41 39
22 21 20 18 17 16 16 17 18 19 20 21 21 21 23 24 24 25 26 27 27 28 30 33 35 36 36 37 38 39 39 39 38 40 42 42 42 44 46 44 43 45 48 46 44 46 47 45 43 43 43 43 41 41 41 42 42 43 43 44 45 45 48 53 53 52 51 48 43 41 39 38 39 40 39 36 35 32 31 34 41 45 46 45 44 43 39
20 19 19 17 16 15 14 15 16 17 18 18 18 18 20 21 21 23 25 26 26 26 29 31 33 33 34 36 38 38 38 37 37 38 40 41 41 42 45 45 42 43 46 47 46 46 46 44 43 42 42 43 43 41 40 38 37 38 38 38 39 40 43 49 52 50 50 48 44 42 41 37 36 38 39 37 35 31 28 30 35 41 45 46 45 43 41
18 17 16 16 14 13 13 14 14 15 16 17 17 17 18 19 19 21 23 25 25 25 26 29 30 31 33 35 37 38 37 36 35 36 38 39 40 42 45 46 42 41 44 46 45 45 46 46 44 42 41 42 43 42 40 38 36 36 35 34 36 38 38 43 48 48 47 47 45 43 42 38 36 38 39 36 34 30 28 28 31 35 40 44 43 40 39
16 15 14 14 12 12 12 13 13 13 15 16 16 17 18 18 18 20 22 23 23 23 25 27 28 30 32 34 36 37 36 34 33 35 37 37 38 41 45 46 42 39 41 44 43 42 45 46 45 43 42 42 42 42 40 39 36 35 34 32 32 33 31 34 41 44 45 45 44 41 38 35 35 39 41 39 35 32 31 31 33 33 35 37 38 38 37
14 14 13 12 11 11 11 12 13 13 15 16 17 18 18 17 17 18 20 21 20 21 23 25 27 28 30 32 34 34 33 33 33 34 36 36 36 40 44 46 43 39 39 42 42 41 41 43 44 44 43 42 42 42 41 40 39 37 35 32 29 28 27 28 32 37 40 42 42 40 37 34 33 36 41 41 39 38 39 39 38 37 35 34 35 35 36
12 12 11 10 10 10 11 12 13 13 14 15 16 17 17 17 16 17 17 18 18 19 22 24 25 27 28 30 30 31 31 31 31 32 33 34 36 38 42 45 44 40 37 39 41 40 39 40 40 41 42 42 42 41 39 38 38 37 36 34 30 27 26 26 28 30 34 39 41 40 38 36 35 37 42 43 42 43 44 43 42 40 38 38 38 38 38
10 9 8 9 9 9 10 12 12 13 14 15 16 17 17 15 14 15 16 16 17 18 20 21 23 25 26 27 28 29 28 28 29 30 31 32 34 37 39 42 44 42 38 37 38 38 38 39 39 39 39 40 41 40 38 36 36 36 35 33 30 27 24 25 26 27 30 36 41 40 38 37 38 41 44 45 46 46 44 43 43 44 43 42 42 41 40
7 6 6 7 7 8 9 11 12 13 14 15 15 15 14 13 12 14 14 15 16 18 20 20 21 23 25 25 26 26 26 27 29 30 30 30 32 34 36 39 41 41 39 37 36 36 35 37 39 39 37 37 38 38 37 36 36 36 36 33 29 26 24 23 24 25 27 31 35 36 36 37 38 40 44 46 48 50 47 42 41 43 45 45 45 44 44
5 4 4 4 5 7 9 10 12 12 13 13 13 12 11 12 12 13 14 15 17 18 20 20 20 22 24 24 24 25 26 27 28 30 30 30 30 31 33 35 37 39 39 37 37 35 33 33 35 38 38 36 35 34 34 34 34 36 37 35 30 28 25 23 23 23 22 24 26 30 33 36 36 37 41 45 49 51 50 48 46 45 45 46 46 46 46
2 1 3 4 5 6 8 9 10 11 11 11 11 11 11 12 14 14 15 16 17 18 20 20 20 22 24 24 24 26 26 27 28 29 30 30 29 29 30 32 34 36 37 37 37 36 34 31 32 34 35 35 35 33 30 29 30 33 36 36 34 31 28 25 24 23 22 22 22 24 29 35 37 36 37 41 44 45 45 47 48 46 45 46 47 47 47
2 3 5 5 6 6 7 8 8 9 9 9 10 11 12 14 15 15 16 18 18 19 20 21 22 23 23 24 25 27 26 26 26 26 27 28 28 28 28 29 31 33 34 34 35 36 35 32 31 31 31 32 33 32 29 26 26 29 34 36 35 34 31 28 27 27 25 24 24 24 25 31 36 38 37 36 37 38 39 40 41 41 40 41 43 43 45
5 6 6 6 6 6 6 6 6 8 9 10 11 12 13 15 17 17 18 20 20 20 22 22 23 24 24 24 25 26 24 24 24 25 25 26 26 26 26 27 29 29 30 30 32 33 33 33 32 31 29 28 29 31 31 27 22 22 28 33 33 32 32 30 29 28 27 26 26 26 26 29 32 36 39 38 36 35 36 37 38 39 39 39 39 40 41
7 7 7 6 6 6 6 6 7 8 9 10 10 12 15 17 19 20 21 21 21 22 23 23 24 25 24 23 23 24 24 23 24 24 24 24 24 24 25 25 26 27 27 27 27 29 30 32 33 33 30 28 27 29 31 29 21 16 20 27 29 29 31 32 30 29 28 27 26 27 28 29 31 34 37 41 43 42 40 40 41 42 42 41 40 41 42
9 8 8 8 7 6 7 7 7 7 8 10 12 14 17 19 20 21 22 22 22 23 25 24 25 25 25 23 23 23 23 23 23 23 23 23 23 23 23 23 24 25 25 25 25 26 28 30 32 32 30 28 27 27 29 30 26 18 17 22 26 28 31 32 30 29 29 28 27 27 28 28 30 32 34 37 41 44 45 45 44 44 45 44 43 43 43
10 9 9 8 7 7 8 7 6 6 10 14 16 18 20 21 21 22 22 22 22 24 25 25 25 25 25 24 24 23 23 23 23 23 23 23 22 22 22 22 23 23 24 24 24 24 26 29 30 29 27 26 25 24 25 26 26 23 20 21 24 27 30 31 31 31 31 30 29 29 29 29 31 33 33 33 33 35 36 38 38 39 42 44 43 42 41
10 10 9 8 8 9 9 7 7 11 16 19 20 20 21 22 22 21 22 22 23 23 24 24 24 24 25 25 25 24 23 23 23 23 23 23 22 22 21 21 22 22 22 23 23 23 24 26 26 25 24 24 24 24 23 22 23 24 23 21 22 25 27 30 31 31 30 32 33 31 29 32 36 37 35 33 32 33 36 38 38 38 38 38 35 32 30
11 10 9 9 10 10 9 9 13 17 20 21 21 21 21 21 21 21 22 22 23 23 23 23 23 23 23 24 25 24 24 24 23 23 23 23 23 22 22 22 22 21 21 21 22 22 22 23 22 22 22 23 24 24 24 22 22 23 23 20 19 21 22 25 30 34 34 35 38 38 37 38 41 41 40 39 38 39 41 39 35 33 32 28 23 20 20
11 11 11 11 10 10 11 14 18 20 21 21 21 21 21 21 21 21 22 22 23 23 23 23 22 21 22 23 24 24 24 24 23 23 23 23 22 22 21 21 21 20 20 20 21 22 22 21 20 21 22 24 24 25 26 24 22 24 25 21 18 18 17 16 21 28 30 31 34 37 36 33 32 33 35 35 33 31 30 28 26 24 22 18 16 16 18
13 13 13 11 10 11 14 18 20 21 20 20 20 20 20 21 21 21 22 22 23 23 23 23 22 21 22 23 24 24 24 24 23 23 22 21 21 21 20 19 18 19 20 20 21 22 22 21 21 22 23 24 24 25 28 27 24 23 24 22 19 20 19 14 13 18 21 21 22 24 23 20 19 19 21 21 19 18 18 18 17 16 15 14 14 16 17
14 13 13 12 13 15 18 20 20 20 19 19 19 19 20 20 21 21 22 22 23 23 24 24 21 20 21 23 24 25 25 24 23 22 21 20 19 19 19 18 18 18 19 20 21 21 21 21 22 23 24 24 24 25 27 28 24 23 24 24 21 20 20 15 9 10 13 14 13 12 11 10 11 11 12 13 13 13 13 13 13 13 13 14 15 16 17
14 14 15 16 17 18 20 20 20 19 19 18 18 19 19 20 20 20 21 22 23 24 25 23 19 18 20 23 24 25 25 24 22 21 20 19 19 18 18 18 18 18 19 20 20 21 22 22 23 25 25 25 25 25 26 27 25 22 23 24 22 21 19 16 10 8 8 8 7 6 6 6 8 9 10 11 12 12 12 13 13 13 14 15 16 17 18
16 17 19 19 20 20 20 20 19 18 18 17 17 18 18 19 19 19 20 21 23 23 23 21 18 17 20 22 24 25 25 25 23 21 19 19 19 18 18 18 18 17 18 19 20 21 23 24 24 25 25 26 28 28 27 27 26 22 21 22 22 21 19 16 12 10 10 9 8 8 8 9 10 11 12 13 13 14 14 14 14 15 15 16 17 18 19
19 20 20 20 20 20 19 19 18 17 17 17 16 16 16 16 18 18 19 21 23 22 19 17 17 18 19 22 23 23 24 24 23 21 19 19 19 18 17 18 18 18 18 18 18 20 23 24 24 25 26 27 28 27 28 30 29 24 21 22 22 20 18 16 14 12 11 11 12 12 12 12 13 14 14 15 15 16 16 16 17 17 18 19 20 22 23
21 22 22 21 21 20 20 19 18 17 17 16 15 15 15 15 15 17 19 22 23 19 14 14 18 20 20 21 22 22 22 22 23 22 20 18 18 17 16 17 19 18 18 17 17 18 20 22 24 25 26 27 25 23 23 27 28 25 21 21 21 20 18 16 13 12 12 13 14 15 15 15 16 16 17 17 18 18 19 19 20 20 21 22 24 25 25
23 23 22 22 22 21 21 21 20 19 19 18 16 14 13 12 13 17 22 22 18 12 9 14 20 20 19 19 20 20 20 20 23 24 22 18 17 17 17 17 18 18 19 20 21 19 18 20 23 25 25 24 24 22 21 23 24 23 21 19 18 17 16 14 13 14 15 16 17 17 17 17 17 17 18 19 19 20 21 21 22 23 24 25 26 26 27
24 23 23 24 24 24 25 25 24 22 21 20 18 15 11 10 13 19 19 16 13 10 11 16 19 19 18 17 17 17 18 20 22 24 23 21 19 18 17 17 17 18 20 21 22 19 17 18 23 28 28 25 24 25 24 23 22 20 19 18 17 16 16 16 16 17 17 18 18 18 19 19 19 19 19 20 20 21 22 23 23 24 25 25 26 27 27
25 25 25 26 26 25 24 23 22 21 20 18 16 14 11 10 15 18 16 14 13 13 15 16 18 19 18 18 17 16 15 17 19 22 23 23 21 18 16 17 19 20 20 20 18 16 15 16 19 24 27 26 25 24 23 21 19 18 17 18 18 17 17 17 17 17 17 18 18 18 18 19 19 20 20 21 22 22 23 24 24 24 25 25 25 25 25
26 26 26 25 24 22 20 19 19 19 18 16 15 15 14 14 15 15 14 12 12 13 13 14 16 16 15 15 15 14 13 15 19 22 24 22 19 17 18 19 20 20 20 19 17 15 15 16 17 19 21 21 21 21 19 17 17 17 17 17 17 16 16 16 16 16 17 17 17 18 18 19 20 21 22 23 23 24 24 24 24 24 24 23 23 23 23
26 25 25 25 24 23 21 19 18 18 17 14 13 14 15 16 16 15 14 12 11 11 10 12 14 13 13 13 14 14 14 15 19 24 25 22 18 18 20 20 18 17 18 17 17 18 17 16 18 18 17 15 16 17 16 15 15 16 15 15 15 15 16 16 16 16 16 17 17 18 19 19 20 21 21 22 22 22 22 22 22 22 22 22 22 22 23
23 23 23 22 22 22 21 19 16 15 13 12 12 15 16 15 14 13 13 12 10 9 9 10 11 11 11 12 13 14 14 14 17 22 24 20 17 19 21 19 18 18 17 15 17 21 19 16 15 16 15 13 15 16 16 15 15 15 14 14 14 14 14 15 15 16 17 17 18 18 19 19 19 19 19 19 19 20 20 21 21 21 22 22 22 22 23
21 19 19 18 18 19 19 18 16 15 13 13 15 17 17 14 11 11 12 12 10 8 8 8 9 10 11 12 12 14 16 17 18 20 20 17 17 19 20 18 17 19 17 16 18 20 19 17 17 18 17 16 17 16 16 15 15 14 13 12 12 12 13 13 14 15 16 17 17 17 17 17 17 17 17 17 18 19 19 20 21 21 22 22 23 23 24
20 18 18 18 18 18 18 17 17 17 16 16 16 16 14 12 11 11 11 11 9 8 7 7 7 8 10 11 11 13 18 20 19 18 18 17 17 18 17 15 16 17 17 16 17 19 18 18 19 19 18 17 17 16 16 15 15 13 12 12 12 12 12 12 12 13 14 14 14 14 15 15 15 16 16 17 18 18 19 20 21 21 22 22 23 23 24
19 19 19 19 18 18 18 18 18 19 19 18 16 15 13 13 12 12 11 10 9 7 5 5 6 8 10 10 10 12 14 16 17 18 18 17 16 17 17 16 17 18 17 15 15 17 18 19 20 19 17 16 15 14 14 14 13 13 12 12 11 11 11 11 11 12 12 13 13 13 13 14 15 15 16 16 17 18 19 20 21 21 22 22 22 23 23
Wind_Direction
286 284 282 279 276 274 271 268 266 263 262 263 264 263 263 263 262 261 258 255 252 250 248 247 246 246 245 246 246 246 246 246 246 246 246 245 245 244 244 242 241 239 236 234 234 236 239 243 245 247 245 240 233 231 231 230 231 232 233 233 230 227 227 227 224 221 220 221 223 224 225 225 226 227 227 226 226 228 232 235 237 238 239 240 241 244 246
286 284 281 278 276 273 271 268 266 264 262 263 264 264 263 263 262 261 258 255 252 249 247 246 245 244 243 243 243 244 244 244 244 244 244 243 243 243 243 241 240 237 234 232 232 234 237 239 242 243 243 239 233 229 230 231 232 232 232 232 231 230 230 229 226 223 219 219 221 223 224 224 225 226 228 228 228 228 230 233 236 238 239 241 242 244 246
285 282 279 277 274 272 269 267 266 265 263 262 263 264 263 263 262 260 258 255 251 247 246 244 243 242 241 241 241 243 243 243 243 243 242 241 240 240 240 239 238 235 232 230 230 232 235 235 236 238 239 236 233 230 230 231 231 232 231 231 231 232 233 231 228 226 223 221 221 222 224 225 225 225 226 228 229 229 230 231 233 235 238 239 240 242 244
283 280 277 274 271 268 266 265 263 262 261 260 260 261 260 259 259 257 256 253 249 246 244 242 241 240 239 239 240 241 241 242 242 242 240 239 238 238 238 237 236 233 231 229 228 230 233 233 233 236 236 232 230 230 230 230 231 233 233 232 231 232 233 233 232 232 230 226 224 223 226 228 229 228 226 227 229 230 231 231 232 235 238 239 240 241 243
281 278 275 271 269 266 264 263 262 261 259 258 257 258 256 254 252 250 250 249 247 243 241 240 239 238 238 238 238 239 240 240 240 240 238 236 236 236 235 234 234 232 229 228 228 228 230 231 231 233 233 230 228 229 230 230 231 234 234 234 234 234 235 235 235 235 233 230 225 223 224 229 232 232 231 229 229 230 231 231 231 233 237 240 240 240 241
279 277 274 271 268 266 264 263 262 261 259 258 257 256 255 252 248 244 242 243 243 240 237 236 236 236 236 236 236 237 238 238 238 237 236 234 233 234 234 232 232 230 226 225 226 225 226 227 227 227 228 227 227 228 229 229 231 233 235 236 236 235 235 236 236 236 235 231 226 222 221 224 228 232 233 232 230 231 232 231 231 232 235 239 241 240 241
278 275 273 270 268 266 264 263 262 262 260 258 257 255 254 251 247 243 238 237 238 237 234 232 232 233 233 233 234 235 236 236 236 235 234 233 232 232 232 230 228 227 224 223 223 223 223 224 224 223 223 223 224 227 228 229 231 234 237 238 236 235 235 235 235 236 235 231 225 222 220 220 221 225 229 231 231 231 232 233 232 233 236 240 242 242 241
276 274 271 269 268 266 264 263 263 262 260 258 256 254 253 251 247 244 239 235 235 236 234 231 228 230 231 231 231 232 233 233 233 233 232 231 229 229 229 228 226 225 223 222 222 222 223 223 222 221 221 220 221 223 225 227 231 234 237 240 238 234 234 235 235 235 234 230 223 219 218 217 217 219 223 227 229 230 231 232 232 233 235 238 240 241 240
277 274 271 269 267 265 264 262 261 261 259 257 255 253 253 251 249 246 241 237 235 236 236 233 229 228 229 229 229 229 230 230 230 230 229 228 226 226 226 226 225 224 222 222 221 220 221 222 221 220 220 219 218 218 220 223 228 230 235 239 239 236 234 235 235 235 232 227 221 218 216 215 215 215 217 221 225 227 228 229 230 231 233 236 239 239 238
278 275 272 269 267 265 264 262 260 259 258 256 254 253 252 252 251 249 245 240 238 238 237 236 233 230 229 229 227 227 227 227 227 227 226 225 224 224 224 223 223 222 221 221 221 219 219 220 220 220 220 219 218 218 217 220 224 228 232 235 236 235 235 235 234 233 230 225 220 219 218 217 217 216 216 218 221 224 226 227 227 229 231 233 236 237 237
283 279 275 271 268 265 263 262 260 258 256 255 254 253 252 252 251 251 248 243 241 240 238 237 236 233 231 230 228 226 225 224 224 224 223 222 222 222 222 222 222 221 220 220 220 220 219 219 219 219 219 219 218 218 218 219 223 228 233 235 234 233 233 234 233 232 230 226 220 219 219 221 222 220 218 218 220 222 226 226 226 227 229 231 233 234 236
287 284 280 275 270 266 263 261 259 257 255 254 253 252 251 251 250 250 249 246 242 241 239 238 237 235 233 231 229 226 223 222 222 221 220 220 220 220 221 221 220 220 219 220 220 220 219 219 219 219 219 219 219 218 218 219 222 228 233 236 237 233 229 231 233 230 229 227 223 221 222 223 224 221 218 218 219 222 225 227 226 226 228 230 231 231 234
289 286 283 278 273 269 265 261 259 257 254 252 252 250 249 249 249 248 248 247 243 241 239 238 237 236 234 232 230 228 223 221 220 219 218 218 218 218 219 220 219 219 218 219 219 220 220 220 220 219 218 219 219 219 218 218 221 226 231 234 238 237 230 228 231 231 230 229 226 225 225 224 223 220 217 218 220 221 224 227 227 226 226 228 229 230 233
289 286 283 279 275 271 267 263 260 258 255 252 251 250 248 247 247 247 247 246 244 241 239 236 236 236 234 231 231 230 226 221 219 218 216 216 217 217 217 219 219 218 217 218 219 219 220 220 220 219 219 218 219 220 219 218 219 224 228 232 235 237 235 230 228 229 230 230 230 229 227 226 225 223 220 219 220 222 225 228 228 227 226 226 226 228 232
291 287 283 279 275 271 267 264 260 258 255 252 250 249 247 246 246 246 246 245 243 240 238 235 234 234 234 231 229 230 228 222 219 217 216 215 215 215 215 216 218 219 217 217 218 218 219 220 221 220 220 219 220 221 220 220 220 222 226 231 232 235 237 232 226 225 227 228 231 231 229 228 228 226 223 222 222 223 226 229 230 228 226 224 224 226 231
292 289 284 279 275 270 268 265 260 256 253 250 248 247 245 244 243 243 244 243 241 238 235 232 230 231 232 230 227 228 228 224 219 217 216 215 214 214 213 213 216 218 217 216 216 216 217 220 221 221 221 220 221 222 221 222 223 223 226 230 232 234 236 231 225 227 227 226 228 232 231 230 229 227 226 226 226 227 229 231 231 228 225 223 222 225 229
296 293 287 280 275 271 268 264 260 256 253 249 245 244 242 241 240 240 241 240 237 234 231 229 227 227 228 228 226 225 226 225 219 217 217 215 213 213 213 212 213 215 215 216 215 214 214 217 219 221 222 222 223 223 223 222 224 225 226 229 233 235 236 234 230 230 229 225 226 229 231 231 231 229 227 228 229 230 233 233 231 228 224 221 220 224 230
299 296 290 282 274 267 263 261 259 256 253 249 244 241 240 238 236 236 236 236 233 228 227 226 223 223 225 225 224 223 224 224 219 216 216 215 212 212 212 213 214 213 213 214 215 213 212 215 218 218 220 222 223 225 225 224 225 227 227 229 232 235 237 238 235 230 227 226 226 228 230 232 232 230 227 228 229 232 235 236 233 229 224 220 220 225 230
298 295 291 284 276 267 260 258 257 254 251 248 243 240 237 235 233 231 232 232 228 224 225 224 220 219 221 222 222 221 222 222 219 215 215 215 212 210 210 212 215 215 213 213 213 211 211 213 216 217 217 219 223 225 226 226 226 228 229 229 232 234 236 237 233 226 224 224 224 226 229 231 232 229 225 225 229 233 237 238 234 228 223 220 221 224 227
295 291 287 283 277 267 257 251 251 249 247 245 242 237 233 231 227 226 227 227 223 221 224 222 217 216 217 217 219 220 220 220 218 214 214 213 211 209 208 209 212 214 214 214 212 211 209 211 214 216 215 218 221 224 227 227 227 229 230 231 234 236 237 238 233 224 221 222 222 223 227 230 230 226 222 222 226 231 234 234 231 227 223 221 222 225 228
292 288 285 280 274 266 256 248 246 243 241 240 236 231 229 226 222 220 222 222 220 221 223 220 215 213 213 214 217 218 218 218 216 212 212 212 209 207 206 207 209 212 213 213 213 212 210 210 212 214 216 218 220 222 226 227 227 229 231 233 236 236 238 241 237 225 217 218 220 221 225 226 224 220 219 221 224 225 226 225 224 224 223 221 223 227 230
292 287 283 278 271 263 253 244 240 237 233 231 227 223 223 222 217 216 219 219 219 220 221 217 212 211 210 211 214 216 216 216 213 209 210 210 207 205 205 205 207 211 212 211 212 212 211 211 212 213 215 217 219 222 225 227 228 231 233 236 240 241 242 245 240 226 216 216 219 221 223 220 215 214 216 218 219 218 217 217 218 221 222 222 224 228 230
292 287 281 275 268 256 245 237 232 229 226 222 217 216 218 216 212 213 217 219 219 219 218 214 209 208 209 210 212 214 214 214 211 208 208 207 204 203 204 204 204 208 211 211 211 211 211 212 214 216 217 218 221 224 227 229 230 232 234 237 242 245 248 248 241 230 221 216 216 219 218 210 205 210 214 215 214 211 207 207 211 216 219 222 225 228 230
292 286 280 272 260 245 233 227 223 221 219 214 209 209 212 211 209 212 216 218 217 215 213 210 206 206 208 208 209 211 211 210 208 205 206 206 203 202 204 205 204 204 206 208 210 210 211 212 215 218 220 221 223 226 230 231 231 232 232 234 240 244 247 249 244 235 227 219 213 214 215 207 201 207 215 218 217 210 202 200 204 209 214 218 222 225 229
295 286 275 263 250 235 222 217 216 215 213 208 205 205 208 208 209 210 213 215 213 209 208 207 204 204 205 205 206 207 208 207 205 203 203 204 202 201 202 204 205 203 202 203 205 208 210 210 212 216 219 221 221 223 227 230 230 231 231 233 238 243 246 246 243 239 234 225 214 211 213 212 206 207 214 220 220 212 203 200 203 208 212 216 219 224 228
298 286 270 259 246 227 211 207 208 209 208 206 204 205 207 207 207 207 207 206 204 203 203 202 200 200 201 202 204 205 204 202 199 197 199 201 200 200 201 203 205 205 203 200 200 203 208 210 211 212 214 217 219 222 226 229 230 231 232 233 235 237 239 240 238 239 240 233 221 214 213 212 209 209 212 217 221 217 209 203 204 209 214 217 220 223 227
300 284 268 259 242 218 204 200 201 204 205 203 202 204 205 202 199 198 197 195 194 195 196 195 194 195 197 198 199 199 195 192 191 191 193 197 198 198 200 202 204 206 206 202 198 198 202 208 212 213 212 213 216 221 226 230 230 230 230 231 230 231 233 233 231 234 240 240 235 230 223 213 208 209 211 214 218 219 213 206 205 208 213 218 221 223 225
312 283 245 228 215 203 196 194 195 199 201 201 201 200 196 189 187 186 185 184 186 188 190 188 186 187 190 191 190 188 185 184 186 187 188 191 193 194 197 201 203 206 208 205 202 200 200 201 207 213 214 213 214 217 222 227 230 230 229 229 229 229 230 230 227 226 229 236 240 240 233 223 216 214 214 213 215 217 212 207 207 209 212 215 219 222 225
335 252 184 176 182 188 189 188 188 190 192 195 194 189 182 179 178 177 175 176 180 182 182 180 178 180 183 182 180 179 179 180 183 185 186 187 188 189 193 197 200 204 207 206 206 207 207 203 203 208 212 214 215 216 219 224 229 231 230 228 229 230 230 230 227 219 217 223 231 235 235 231 228 226 219 210 208 210 209 207 208 211 212 212 216 220 224
93 132 141 147 160 170 173 173 175 178 181 182 179 175 171 171 172 172 170 172 175 176 173 172 172 173 175 175 174 175 176 177 179 181 182 184 187 188 191 194 197 201 205 206 207 210 213 212 208 207 208 211 214 217 219 223 229 233 231 228 227 229 228 227 223 217 212 214 220 225 229 230 232 234 230 217 206 206 209 211 213 216 216 217 219 222 225
119 126 130 138 145 147 149 155 162 167 171 172 170 169 168 167 167 168 167 168 170 168 166 165 166 166 167 169 172 171 170 172 174 177 178 180 184 188 190 192 194 197 201 204 207 210 214 216 214 211 210 210 212 215 218 221 231 239 233 227 226 226 222 219 217 216 213 212 214 218 223 228 232 237 239 233 223 217 216 217 219 221 221 222 224 226 228
118 118 119 123 125 124 129 138 148 157 166 169 168 166 164 163 162 162 163 165 165 163 161 160 160 161 161 163 165 165 166 169 171 173 175 177 180 185 187 188 190 192 194 198 202 207 211 214 215 214 214 213 213 216 218 221 228 238 231 224 223 223 221 219 219 219 217 216 216 220 225 228 232 235 237 235 233 231 229 226 225 226 226 226 229 232 234
109 108 108 111 111 114 125 132 138 151 165 165 160 156 155 155 156 158 160 162 161 160 159 157 156 157 158 158 158 161 164 167 168 169 171 174 177 180 183 185 186 186 188 191 196 202 208 211 213 214 215 214 216 221 222 223 229 234 229 222 221 221 221 222 222 222 221 219 219 224 228 232 233 233 232 232 233 233 234 232 231 231 231 231 232 236 239
101 103 105 105 106 115 125 127 126 138 150 150 149 149 149 150 152 156 158 159 158 157 158 157 155 156 157 157 157 159 162 164 166 166 168 172 174 176 179 181 181 183 185 188 192 198 206 210 212 213 213 213 217 221 222 221 225 230 230 226 221 219 220 222 221 223 224 222 220 223 227 232 237 234 228 228 232 234 236 238 238 237 235 233 235 239 243
99 102 101 101 107 114 113 108 118 134 142 143 142 144 146 147 150 154 156 156 155 156 158 158 157 158 159 158 158 160 161 163 164 165 166 169 172 174 175 177 179 182 184 187 191 197 205 210 210 209 210 212 215 217 213 212 216 223 228 228 220 216 220 222 220 221 224 223 220 220 224 230 234 230 221 219 225 229 231 236 239 235 230 227 229 234 237
99 99 98 103 109 106 100 107 125 133 136 136 137 140 143 146 148 150 153 154 154 155 157 157 158 161 162 162 161 162 162 163 164 164 166 169 171 173 176 178 180 182 183 186 192 197 204 208 205 201 204 210 214 213 210 207 210 217 222 223 215 209 214 218 215 214 218 219 215 215 219 223 223 219 213 214 219 223 223 225 224 219 216 217 220 223 225
94 96 101 106 102 92 98 116 127 129 130 132 135 138 141 143 145 148 150 152 152 152 153 154 157 162 165 166 166 166 164 164 165 166 169 172 173 174 177 179 180 181 183 186 192 198 203 205 200 195 199 207 211 212 210 208 208 212 216 219 212 199 194 194 192 193 199 202 200 201 205 208 207 205 205 209 214 215 212 208 204 204 212 222 230 231 230
93 95 100 103 97 94 107 120 125 126 128 130 133 136 139 141 143 146 149 150 150 150 151 151 153 161 167 168 169 169 167 166 168 170 171 174 175 176 179 180 181 183 185 189 193 197 200 200 196 193 197 204 207 210 211 211 211 214 216 218 214 202 194 185 168 167 174 179 182 187 192 196 198 201 203 208 212 210 206 206 212 221 232 241 241 238 237
94 94 97 101 102 106 114 121 123 124 126 127 129 133 137 139 141 145 147 148 148 150 150 148 151 163 170 169 170 171 169 168 170 172 174 176 177 179 181 183 184 186 188 191 196 197 196 196 194 193 196 200 202 205 210 213 217 219 219 217 215 210 205 202 189 169 165 165 166 173 182 192 203 209 211 216 221 221 219 222 227 230 232 233 233 235 238
93 94 99 105 109 113 117 120 121 121 122 123 126 131 135 138 140 143 144 146 149 150 149 147 152 166 172 169 169 172 171 170 171 173 176 180 181 181 183 185 186 188 190 191 194 195 195 195 194 193 194 196 195 196 203 209 211 212 213 214 215 214 213 213 209 191 177 170 167 173 185 195 205 214 219 223 226 226 226 227 227 228 231 235 237 240 243
95 98 103 108 111 113 115 115 115 116 117 119 123 129 133 135 138 141 144 146 147 147 147 146 151 164 169 167 167 171 173 173 173 173 176 182 186 185 185 183 182 186 191 192 192 195 197 197 194 191 192 192 189 188 194 200 202 202 203 206 209 212 212 211 208 203 201 205 209 211 213 214 217 221 225 228 231 234 236 238 240 243 246 248 250 252 254
98 100 102 104 106 106 106 107 107 108 110 112 116 122 126 131 136 140 143 144 142 140 141 144 149 157 163 164 165 170 175 176 174 171 173 180 187 188 185 180 178 182 186 186 187 193 198 198 193 188 188 188 187 189 195 200 202 205 207 206 208 210 209 205 205 206 208 212 217 219 221 223 225 228 232 235 237 240 243 246 249 252 254 256 258 259 260
97 98 99 99 100 99 99 99 99 100 102 105 109 115 122 129 135 138 139 139 135 132 136 144 148 155 163 165 165 169 174 175 173 170 171 179 187 185 179 178 179 176 170 171 182 195 200 197 191 185 184 185 185 190 201 205 204 204 208 208 208 210 211 210 211 213 214 218 223 226 230 232 234 236 239 242 243 245 247 249 252 254 256 258 260 261 262
94 95 96 96 95 94 94 93 93 94 95 95 95 100 107 116 130 137 137 133 124 115 131 148 151 156 164 165 163 166 171 174 174 172 172 177 183 179 172 174 180 174 166 173 189 200 202 196 187 180 181 188 190 192 203 212 210 207 210 213 214 216 221 224 225 223 223 226 231 234 238 242 243 244 245 246 247 249 251 252 254 256 258 260 262 264 265
92 93 94 95 94 94 94 92 89 88 88 87 86 84 83 103 131 135 128 114 98 98 126 145 150 156 163 163 160 164 171 176 178 177 174 170 168 165 163 166 171 170 170 180 193 200 198 196 191 184 181 188 197 201 207 215 216 215 217 223 226 228 231 234 234 233 232 234 236 238 241 245 248 250 252 253 254 255 257 259 261 263 264 265 266 267 267
91 92 94 95 94 94 91 87 83 81 81 84 85 80 78 107 130 124 102 85 93 113 130 143 152 158 163 164 163 167 173 175 177 178 173 165 159 158 159 161 163 168 175 183 192 196 194 196 199 195 190 191 199 207 211 216 219 220 222 226 229 233 235 235 237 238 239 240 241 244 246 249 252 255 257 260 261 264 265 267 267 268 268 267 267 267 268
91 94 96 96 94 92 88 83 81 81 82 85 88 87 89 108 122 116 98 95 110 120 128 141 151 154 154 157 165 169 165 162 165 170 170 165 158 158 165 167 167 173 181 181 179 182 185 187 192 198 199 199 203 210 214 218 222 224 225 226 230 235 238 240 242 243 243 244 246 248 250 253 256 259 262 266 269 271 272 272 272 272 272 271 271 271 272
85 90 91 90 89 86 82 80 82 84 86 90 96 100 107 117 120 114 108 113 120 121 121 133 144 143 139 147 157 154 144 147 160 166 167 164 157 157 165 171 171 175 182 181 174 175 180 182 183 189 194 196 201 208 215 219 223 226 227 227 230 233 237 240 244 247 248 250 252 254 257 260 263 266 269 272 273 275 275 276 276 276 276 277 278 278 279
84 85 82 82 83 81 77 77 81 85 91 101 108 112 119 125 122 110 105 110 117 116 114 124 135 136 133 140 147 138 129 137 157 165 166 165 162 161 167 172 172 171 175 175 170 171 176 177 177 182 185 186 192 202 212 217 220 224 226 227 230 234 238 243 249 252 254 256 259 262 266 269 270 272 273 274 275 276 277 278 278 279 280 281 282 283 284
93 88 83 82 83 79 76 79 83 87 95 106 111 112 115 119 115 107 108 115 117 107 99 109 124 128 129 138 140 126 115 121 141 156 163 167 167 166 170 172 169 167 168 166 166 170 176 176 174 177 182 187 193 203 212 219 224 229 232 234 239 244 246 249 252 254 256 259 262 265 268 271 272 273 274 274 275 277 277 277 278 279 280 281 282 283 283
92 89 86 83 78 74 74 77 80 83 90 99 104 105 104 100 96 98 109 122 126 113 95 96 113 123 130 139 139 122 112 114 125 141 153 159 162 166 171 170 165 161 159 157 163 173 180 182 183 187 193 198 204 211 219 224 228 232 234 236 240 244 246 249 253 255 258 260 262 264 266 267 269 271 272 273 275 276 276 277 278 279 280 281 281 281 281
91 90 86 79 73 72 76 79 79 82 87 93 97 99 97 94 93 96 105 119 130 124 98 84 101 119 129 135 134 125 117 114 119 128 135 140 148 157 157 150 146 150 152 152 160 172 182 189 196 200 203 205 208 212 215 218 220 222 224 229 236 243 247 251 255 258 261 264 264 265 267 269 270 271 273 274 276 277 278 279 280 280 280 280 279 279 278
Height
5680 5679 5678 5677 5676 5676 5675 5676 5676 5678 5681 5680 5679 5680 5682 5683 5684 5685 5688 5690 5691 5693 5695 5697 5699 5702 5706 5708 5710 5713 5716 5719 5722 5723 5725 5728 5730 5733 5736 5739 5742 5745 5748 5750 5752 5754 5756 5759 5761 5764 5767 5769 5771 5773 5775 5777 5779 5781 5783 5785 5787 5787 5787 5790 5795 5799 5803 5805 5807 5809 5811 5815 5818 5821 5825 5829 5832 5836 5839 5840 5843 5844 5844 5846 5848 5847 5848
5666 5665 5664 5663 5663 5663 5662 5662 5663 5665 5668 5669 5668 5668 5670 5672 5673 5674 5676 5679 5681 5683 5685 5687 5689 5693 5696 5698 5701 5704 5707 5710 5713 5715 5718 5721 5723 5726 5729 5733 5736 5739 5743 5745 5747 5749 5751 5754 5757 5760 5762 5765 5767 5769 5771 5773 5776 5778 5780 5781 5782 5782 5784 5787 5790 5793 5796 5797 5799 5801 5804 5807 5811 5814 5818 5822 5826 5832 5834 5836 5838 5838 5837 5842 5843 5841 5845
5651 5650 5650 5649 5649 5649 5648 5648 5649 5651 5654 5656 5656 5656 5658 5660 5661 5662 5664 5667 5670 5672 5675 5677 5680 5683 5686 5689 5693 5696 5698 5702 5705 5708 5710 5713 5716 5718 5722 5725 5729 5733 5737 5740 5742 5743 5746 5750 5753 5754 5757 5760 5763 5765 5766 5769 5771 5773 5775 5777 5778 5779 5780 5783 5784 5786 5789 5791 5793 5797 5800 5802 5805 5808 5812 5816 5820 5824 5826 5830 5831 5829 5831 5836 5837 5837 5843
5636 5635 5635 5635 5635 5634 5634 5633 5634 5635 5639 5642 5643 5643 5646 5648 5649 5650 5652 5655 5658 5661 5664 5667 5669 5673 5676 5680 5683 5686 5690 5694 5697 5699 5703 5706 5708 5711 5714 5718 5722 5726 5731 5734 5736 5738 5740 5745 5748 5750 5753 5756 5758 5760 5762 5765 5767 5769 5771 5772 5774 5775 5776 5778 5780 5782 5786 5790 5793 5797 5799 5799 5801 5804 5807 5810 5813 5816 5821 5823 5823 5823 5827 5830 5831 5836 5842
5622 5621 5621 5621 5621 5621 5620 5620 5621 5621 5624 5628 5629 5630 5632 5635 5637 5639 5640 5643 5647 5650 5654 5657 5659 5663 5667 5670 5674 5677 5681 5685 5688 5691 5694 5698 5701 5703 5707 5711 5715 5720 5724 5728 5731 5734 5736 5740 5743 5746 5748 5751 5754 5755 5758 5761 5763 5765 5767 5768 5770 5772 5773 5775 5777 5780 5784 5789 5792 5794 5795 5795 5798 5801 5804 5807 5809 5811 5814 5815 5817 5822 5824 5823 5828 5836 5838
5609 5609 5609 5609 5609 5609 5609 5609 5609 5609 5611 5615 5618 5618 5620 5623 5626 5628 5629 5632 5635 5639 5643 5646 5649 5653 5657 5661 5665 5669 5672 5676 5679 5682 5686 5690 5693 5696 5699 5704 5709 5714 5718 5721 5724 5728 5730 5733 5737 5741 5744 5747 5750 5751 5754 5757 5758 5760 5762 5764 5767 5769 5770 5773 5775 5776 5780 5785 5787 5788 5789 5790 5793 5796 5799 5802 5805 5806 5808 5810 5815 5819 5818 5819 5827 5833 5833
5597 5597 5596 5597 5597 5598 5598 5598 5598 5599 5600 5604 5607 5608 5610 5613 5616 5618 5620 5623 5625 5627 5631 5636 5640 5643 5647 5652 5656 5660 5663 5667 5670 5674 5678 5682 5686 5689 5693 5698 5702 5706 5710 5713 5717 5720 5723 5727 5731 5736 5740 5743 5746 5748 5751 5753 5755 5756 5758 5760 5763 5766 5768 5769 5771 5773 5776 5780 5782 5783 5784 5784 5786 5790 5793 5797 5799 5801 5803 5807 5812 5814 5815 5819 5824 5827 5829
5584 5584 5584 5584 5585 5586 5587 5588 5588 5589 5590 5594 5597 5599 5600 5603 5606 5608 5612 5615 5616 5618 5621 5626 5630 5633 5637 5642 5647 5651 5654 5658 5662 5666 5671 5675 5679 5683 5686 5690 5695 5699 5703 5706 5711 5715 5718 5722 5727 5731 5735 5738 5741 5744 5747 5749 5751 5753 5754 5755 5759 5762 5764 5765 5767 5769 5771 5775 5777 5778 5779 5780 5781 5783 5787 5791 5794 5796 5799 5802 5806 5809 5812 5816 5819 5820 5823
5572 5572 5571 5572 5573 5575 5576 5577 5578 5580 5581 5584 5587 5590 5592 5594 5597 5599 5603 5607 5609 5611 5613 5616 5620 5624 5627 5632 5637 5642 5646 5650 5654 5659 5663 5668 5671 5675 5679 5683 5687 5692 5697 5701 5705 5709 5713 5717 5721 5725 5728 5732 5735 5738 5742 5744 5746 5749 5750 5751 5754 5758 5759 5761 5763 5764 5767 5771 5772 5772 5774 5775 5775 5777 5781 5784 5787 5790 5793 5797 5800 5804 5808 5811 5813 5814 5818
5560 5560 5560 5561 5563 5564 5566 5567 5569 5570 5573 5575 5578 5581 5583 5586 5588 5591 5595 5599 5602 5603 5606 5609 5612 5616 5619 5623 5628 5633 5637 5641 5646 5651 5655 5660 5664 5668 5672 5676 5681 5686 5691 5695 5698 5702 5706 5711 5715 5719 5723 5727 5730 5733 5736 5739 5741 5744 5745 5745 5747 5751 5754 5756 5757 5760 5763 5766 5767 5767 5769 5768 5767 5771 5777 5780 5783 5786 5789 5792 5795 5799 5803 5805 5806 5809 5816
5551 5550 5550 5551 5552 5554 5556 5557 5559 5561 5564 5566 5569 5572 5575 5578 5580 5583 5586 5591 5595 5596 5599 5602 5605 5608 5612 5615 5619 5624 5629 5633 5638 5642 5648 5653 5657 5662 5666 5669 5674 5679 5684 5688 5692 5697 5701 5705 5708 5713 5717 5721 5726 5729 5732 5735 5737 5739 5741 5740 5740 5744 5748 5750 5752 5756 5759 5761 5762 5763 5762 5761 5764 5772 5777 5777 5779 5781 5784 5786 5790 5794 5798 5800 5803 5808 5813
5543 5542 5542 5542 5543 5544 5546 5548 5550 5552 5555 5558 5561 5564 5567 5569 5573 5575 5578 5583 5588 5590 5592 5595 5598 5601 5605 5608 5612 5617 5621 5625 5630 5635 5641 5646 5651 5655 5659 5663 5668 5673 5677 5682 5687 5691 5695 5699 5703 5707 5711 5716 5720 5724 5727 5730 5733 5736 5737 5737 5737 5739 5742 5745 5748 5752 5755 5757 5759 5759 5757 5759 5766 5772 5773 5773 5776 5778 5780 5783 5786 5790 5793 5796 5800 5805 5809
5537 5536 5535 5536 5536 5537 5538 5540 5542 5544 5547 5550 5553 5556 5559 5562 5565 5568 5571 5576 5580 5583 5585 5588 5591 5595 5598 5601 5605 5609 5614 5619 5623 5629 5635 5640 5644 5649 5652 5656 5662 5667 5672 5677 5681 5685 5690 5694 5697 5701 5706 5710 5714 5717 5721 5725 5729 5731 5732 5733 5734 5735 5737 5740 5743 5748 5751 5753 5754 5754 5754 5758 5764 5767 5768 5771 5773 5774 5776 5778 5781 5784 5789 5792 5797 5802 5807
5532 5531 5530 5530 5530 5531 5531 5533 5535 5537 5539 5543 5546 5548 5552 5555 5558 5561 5564 5569 5574 5576 5579 5583 5585 5587 5591 5595 5599 5602 5607 5612 5617 5622 5628 5633 5638 5643 5647 5652 5657 5661 5666 5671 5675 5680 5684 5688 5691 5695 5700 5703 5707 5710 5715 5719 5724 5726 5727 5728 5730 5731 5733 5736 5740 5743 5746 5748 5749 5749 5752 5757 5760 5763 5765 5767 5769 5771 5773 5774 5777 5781 5785 5789 5794 5800 5804
5527 5526 5525 5525 5525 5525 5526 5527 5529 5530 5532 5536 5539 5542 5545 5549 5552 5555 5558 5562 5567 5570 5573 5576 5579 5581 5585 5589 5593 5596 5601 5606 5611 5617 5622 5628 5632 5637 5642 5647 5651 5655 5661 5666 5670 5674 5678 5682 5686 5690 5693 5697 5701 5705 5710 5715 5719 5721 5722 5724 5726 5728 5728 5731 5734 5736 5739 5742 5744 5746 5750 5754 5758 5760 5762 5765 5766 5769 5771 5771 5773 5777 5781 5786 5792 5797 5801
5522 5522 5521 5521 5521 5521 5521 5522 5524 5525 5527 5530 5533 5536 5539 5543 5546 5549 5552 5556 5561 5565 5568 5570 5572 5576 5579 5583 5587 5591 5595 5600 5606 5611 5616 5622 5627 5632 5637 5642 5646 5650 5655 5660 5664 5669 5673 5677 5681 5685 5688 5692 5696 5700 5705 5710 5713 5716 5718 5720 5722 5724 5725 5728 5730 5732 5735 5737 5739 5742 5746 5751 5754 5757 5759 5762 5764 5767 5768 5767 5768 5773 5779 5784 5790 5795 5798
5519 5518 5517 5517 5517 5517 5518 5518 5520 5521 5522 5525 5528 5531 5534 5537 5541 5544 5547 5550 5555 5560 5562 5563 5566 5570 5574 5577 5582 5586 5590 5595 5601 5606 5610 5616 5621 5627 5632 5637 5640 5644 5649 5654 5659 5664 5668 5672 5676 5680 5684 5688 5692 5695 5700 5704 5708 5711 5714 5715 5717 5719 5723 5725 5727 5730 5732 5734 5735 5738 5743 5746 5750 5753 5756 5759 5761 5764 5764 5762 5765 5772 5778 5782 5787 5792 5795
5515 5515 5514 5514 5514 5514 5515 5515 5516 5517 5519 5521 5524 5526 5529 5533 5536 5539 5542 5546 5550 5555 5556 5557 5561 5566 5569 5572 5577 5582 5586 5591 5596 5601 5606 5611 5617 5622 5628 5632 5636 5640 5645 5649 5654 5659 5664 5668 5672 5676 5680 5683 5686 5690 5694 5699 5702 5706 5709 5711 5712 5715 5720 5722 5724 5727 5729 5731 5733 5736 5739 5742 5746 5749 5752 5756 5758 5759 5759 5760 5765 5772 5776 5779 5784 5788 5791
5512 5511 5511 5511 5511 5511 5512 5512 5513 5515 5516 5518 5520 5523 5526 5529 5532 5535 5538 5541 5546 5549 5550 5552 5557 5561 5564 5568 5573 5578 5582 5587 5592 5597 5602 5606 5612 5618 5623 5628 5632 5637 5641 5645 5650 5654 5659 5664 5668 5672 5676 5679 5682 5685 5689 5693 5698 5701 5704 5706 5708 5712 5716 5719 5720 5722 5725 5728 5730 5733 5735 5738 5742 5746 5749 5752 5754 5755 5757 5760 5764 5768 5772 5776 5780 5784 5787
5508 5508 5508 5507 5507 5508 5509 5510 5510 5512 5513 5515 5518 5520 5523 5525 5528 5532 5534 5537 5542 5545 5546 5548 5553 5557 5561 5566 5570 5574 5579 5583 5588 5593 5597 5602 5608 5614 5619 5624 5629 5633 5637 5642 5646 5650 5655 5660 5664 5668 5672 5675 5678 5681 5684 5689 5693 5696 5699 5702 5705 5708 5711 5713 5716 5720 5722 5724 5727 5729 5731 5735 5739 5742 5745 5747 5749 5752 5755 5758 5760 5764 5768 5772 5776 5780 5783
5505 5505 5505 5505 5505 5505 5506 5507 5508 5509 5511 5513 5515 5518 5520 5523 5525 5528 5531 5534 5538 5540 5542 5545 5550 5554 5558 5562 5566 5570 5575 5579 5584 5589 5594 5599 5605 5611 5616 5621 5625 5629 5633 5637 5642 5647 5652 5656 5660 5664 5668 5671 5674 5677 5680 5684 5688 5692 5695 5698 5700 5703 5705 5708 5712 5716 5718 5719 5722 5725 5728 5731 5735 5738 5741 5743 5745 5748 5751 5754 5757 5760 5764 5768 5772 5776 5779
5502 5502 5501 5502 5502 5502 5503 5504 5506 5507 5509 5510 5513 5516 5518 5520 5523 5526 5528 5531 5534 5537 5539 5543 5547 5551 5555 5559 5563 5567 5572 5576 5581 5587 5591 5596 5602 5607 5611 5616 5621 5625 5629 5634 5638 5643 5648 5652 5656 5660 5664 5667 5670 5674 5677 5681 5684 5687 5691 5694 5695 5698 5701 5703 5707 5711 5714 5717 5719 5722 5725 5727 5730 5733 5736 5738 5741 5744 5747 5751 5754 5757 5760 5764 5768 5771 5774
5499 5499 5499 5499 5499 5500 5501 5502 5504 5505 5507 5509 5511 5513 5515 5518 5521 5523 5526 5529 5531 5534 5537 5541 5545 5549 5552 5556 5560 5565 5570 5575 5579 5584 5587 5592 5598 5603 5607 5611 5617 5621 5626 5631 5635 5639 5644 5648 5652 5656 5660 5663 5667 5670 5674 5677 5680 5683 5687 5690 5692 5695 5697 5698 5701 5707 5711 5714 5717 5720 5722 5723 5724 5728 5731 5733 5736 5739 5742 5746 5750 5753 5756 5760 5763 5766 5769
5497 5497 5497 5497 5497 5498 5499 5500 5502 5503 5505 5507 5509 5512 5514 5516 5519 5522 5524 5527 5530 5533 5536 5539 5543 5546 5550 5554 5559 5563 5568 5572 5576 5581 5585 5590 5595 5599 5603 5608 5613 5618 5622 5627 5632 5637 5641 5645 5649 5653 5657 5660 5664 5667 5670 5673 5676 5680 5684 5687 5689 5692 5693 5694 5698 5703 5708 5711 5714 5718 5719 5719 5720 5724 5728 5730 5733 5735 5737 5741 5745 5748 5751 5755 5759 5761 5764
5495 5495 5495 5495 5496 5496 5497 5499 5500 5502 5504 5506 5508 5510 5513 5515 5518 5520 5523 5525 5529 5532 5535 5538 5541 5545 5549 5553 5557 5561 5565 5570 5575 5580 5584 5588 5591 5596 5600 5605 5610 5615 5619 5623 5629 5634 5638 5642 5646 5650 5653 5656 5660 5663 5666 5669 5673 5676 5680 5683 5687 5690 5692 5693 5695 5699 5704 5708 5711 5714 5715 5715 5717 5721 5724 5727 5730 5732 5733 5736 5740 5744 5747 5750 5753 5756 5758
5494 5493 5494 5494 5494 5495 5496 5498 5500 5501 5503 5505 5507 5509 5512 5514 5517 5519 5522 5525 5528 5531 5533 5537 5540 5544 5548 5552 5555 5560 5564 5569 5574 5578 5581 5585 5589 5594 5599 5603 5608 5612 5616 5621 5626 5630 5635 5639 5642 5645 5649 5652 5656 5660 5663 5666 5670 5673 5677 5680 5684 5687 5689 5691 5693 5695 5699 5703 5706 5709 5711 5712 5714 5717 5720 5723 5726 5729 5730 5732 5735 5739 5743 5745 5748 5750 5752
5492 5492 5493 5493 5494 5495 5496 5498 5499 5501 5502 5504 5506 5509 5511 5514 5516 5519 5521 5524 5527 5530 5533 5536 5540 5543 5547 5551 5555 5559 5564 5568 5571 5575 5579 5583 5588 5593 5597 5601 5606 5610 5614 5619 5623 5627 5631 5635 5638 5642 5645 5649 5652 5656 5660 5663 5666 5670 5673 5677 5681 5683 5686 5688 5690 5691 5694 5698 5702 5705 5708 5710 5711 5714 5717 5720 5722 5724 5727 5728 5730 5733 5737 5740 5742 5744 5746
5492 5492 5492 5493 5494 5495 5496 5497 5499 5501 5502 5504 5506 5509 5511 5514 5516 5518 5521 5524 5526 5529 5532 5536 5539 5543 5546 5550 5554 5558 5562 5566 5569 5573 5577 5582 5587 5591 5595 5599 5604 5608 5612 5616 5621 5624 5628 5632 5636 5639 5643 5646 5649 5653 5656 5660 5663 5666 5669 5673 5677 5680 5682 5685 5687 5688 5690 5693 5697 5701 5705 5708 5709 5711 5714 5716 5717 5719 5722 5723 5725 5727 5730 5733 5736 5740 5742
5491 5492 5492 5493 5494 5495 5496 5498 5499 5501 5503 5505 5507 5509 5511 5514 5516 5518 5521 5524 5527 5529 5532 5536 5539 5543 5546 5550 5554 5557 5561 5564 5568 5572 5577 5581 5586 5590 5594 5598 5602 5606 5610 5615 5618 5622 5625 5629 5633 5636 5640 5644 5647 5651 5654 5657 5660 5662 5664 5669 5673 5676 5679 5682 5685 5686 5688 5690 5693 5697 5701 5704 5707 5709 5710 5711 5712 5715 5718 5720 5721 5723 5725 5726 5730 5734 5737
5492 5492 5493 5494 5495 5496 5497 5499 5500 5502 5504 5505 5507 5510 5512 5514 5516 5519 5522 5524 5527 5530 5533 5536 5539 5543 5546 5550 5553 5557 5560 5564 5568 5572 5576 5581 5585 5588 5592 5596 5601 5605 5609 5613 5617 5620 5623 5627 5630 5634 5638 5642 5645 5649 5652 5655 5657 5658 5660 5664 5668 5672 5675 5678 5681 5683 5685 5687 5689 5693 5697 5700 5702 5704 5707 5708 5709 5711 5714 5716 5718 5720 5722 5724 5726 5729 5732
5493 5493 5494 5495 5496 5497 5499 5500 5501 5503 5504 5506 5508 5510 5512 5515 5517 5520 5522 5525 5528 5531 5534 5537 5540 5544 5547 5551 5554 5557 5561 5565 5568 5572 5576 5580 5584 5588 5592 5596 5600 5604 5608 5612 5616 5619 5622 5625 5628 5632 5636 5640 5644 5647 5649 5652 5654 5656 5657 5660 5665 5669 5671 5674 5677 5681 5683 5684 5686 5688 5692 5694 5696 5698 5702 5705 5707 5709 5711 5713 5715 5717 5718 5720 5723 5725 5727
5494 5495 5496 5497 5498 5499 5500 5501 5503 5504 5505 5507 5509 5511 5513 5515 5518 5521 5523 5526 5529 5532 5535 5538 5542 5545 5548 5552 5555 5559 5562 5565 5568 5572 5576 5580 5584 5587 5591 5595 5599 5603 5607 5611 5614 5617 5620 5623 5627 5631 5635 5639 5642 5645 5647 5650 5652 5654 5655 5658 5662 5666 5668 5670 5674 5677 5680 5681 5683 5685 5686 5689 5691 5693 5695 5698 5701 5704 5707 5709 5711 5713 5714 5716 5719 5721 5723
5497 5497 5498 5499 5500 5501 5502 5503 5504 5505 5507 5508 5510 5512 5514 5517 5519 5522 5525 5528 5531 5534 5537 5540 5543 5547 5550 5554 5557 5560 5563 5566 5569 5573 5576 5580 5583 5587 5591 5595 5598 5602 5606 5609 5612 5615 5618 5622 5626 5630 5634 5638 5641 5643 5645 5648 5651 5653 5654 5656 5659 5662 5664 5667 5670 5673 5676 5678 5680 5681 5683 5684 5686 5688 5690 5693 5696 5698 5701 5704 5707 5709 5711 5713 5715 5716 5718
5499 5500 5500 5501 5502 5503 5504 5504 5505 5506 5508 5509 5512 5514 5516 5518 5521 5524 5527 5529 5533 5536 5539 5542 5545 5549 5552 5555 5558 5561 5564 5567 5570 5573 5577 5580 5584 5587 5591 5594 5598 5601 5604 5607 5611 5614 5617 5620 5624 5629 5633 5637 5639 5641 5644 5647 5649 5651 5653 5655 5657 5659 5661 5663 5666 5669 5672 5675 5676 5677 5680 5682 5684 5685 5687 5689 5692 5695 5697 5699 5702 5705 5706 5709 5711 5713 5714
5502 5502 5503 5503 5504 5505 5506 5506 5507 5508 5509 5511 5514 5516 5518 5521 5523 5526 5529 5531 5535 5538 5541 5544 5547 5550 5554 5557 5560 5562 5565 5568 5571 5574 5577 5581 5584 5587 5591 5594 5597 5600 5603 5607 5610 5613 5616 5619 5624 5628 5632 5635 5637 5640 5642 5645 5647 5649 5652 5654 5656 5656 5658 5659 5662 5665 5668 5670 5672 5675 5678 5680 5681 5682 5684 5686 5689 5691 5693 5694 5697 5699 5701 5704 5706 5708 5710
5504 5505 5505 5505 5506 5507 5508 5508 5509 5510 5512 5514 5516 5519 5521 5523 5526 5528 5531 5534 5536 5539 5543 5546 5549 5552 5555 5558 5561 5564 5566 5570 5573 5576 5579 5582 5585 5588 5591 5594 5597 5600 5603 5606 5609 5612 5615 5618 5622 5627 5630 5633 5635 5637 5640 5643 5645 5648 5651 5653 5653 5654 5655 5657 5658 5660 5663 5664 5667 5670 5673 5674 5675 5678 5680 5683 5684 5685 5687 5688 5691 5694 5698 5701 5703 5704 5706
5507 5507 5508 5508 5509 5510 5510 5511 5512 5514 5516 5518 5520 5522 5524 5526 5528 5531 5533 5536 5538 5541 5545 5547 5551 5554 5557 5560 5562 5565 5568 5571 5574 5577 5580 5582 5585 5588 5591 5594 5597 5600 5603 5606 5609 5611 5614 5617 5621 5625 5629 5631 5633 5636 5639 5641 5644 5646 5649 5651 5652 5653 5654 5655 5656 5657 5658 5660 5661 5663 5666 5668 5670 5673 5676 5678 5680 5681 5683 5686 5689 5692 5695 5698 5700 5702 5703
5510 5511 5511 5512 5512 5513 5514 5515 5516 5518 5519 5521 5523 5525 5527 5529 5531 5533 5536 5538 5541 5544 5546 5549 5552 5555 5558 5561 5563 5566 5569 5572 5575 5578 5580 5583 5586 5589 5592 5595 5598 5601 5603 5606 5608 5611 5614 5617 5620 5624 5627 5629 5632 5635 5637 5640 5642 5645 5647 5649 5651 5652 5652 5653 5654 5655 5656 5657 5658 5660 5662 5665 5667 5670 5672 5676 5679 5681 5682 5684 5687 5690 5692 5694 5697 5698 5700
5514 5514 5515 5515 5516 5517 5517 5519 5520 5522 5523 5525 5527 5528 5530 5532 5534 5536 5538 5541 5543 5546 5548 5551 5554 5557 5559 5562 5564 5567 5570 5573 5576 5579 5581 5584 5587 5590 5593 5595 5598 5601 5603 5605 5608 5610 5613 5616 5619 5622 5625 5629 5632 5634 5637 5639 5642 5644 5645 5647 5649 5650 5651 5652 5653 5653 5654 5655 5657 5659 5661 5663 5666 5668 5671 5674 5677 5679 5681 5683 5685 5687 5689 5692 5694 5695 5697
5517 5517 5518 5518 5519 5520 5521 5523 5524 5525 5527 5529 5530 5532 5533 5535 5537 5539 5541 5543 5545 5548 5550 5552 5555 5558 5560 5563 5565 5568 5571 5574 5577 5579 5582 5585 5587 5590 5593 5595 5598 5600 5603 5605 5607 5610 5613 5616 5618 5622 5625 5628 5631 5634 5636 5639 5641 5642 5644 5645 5647 5649 5650 5651 5651 5652 5653 5654 5656 5658 5661 5663 5665 5668 5670 5672 5674 5676 5678 5680 5682 5684 5686 5688 5690 5691 5693
5520 5520 5521 5522 5523 5524 5525 5527 5528 5530 5531 5532 5534 5535 5537 5538 5540 5542 5544 5545 5548 5550 5552 5554 5557 5559 5562 5564 5566 5569 5572 5575 5577 5580 5583 5585 5587 5590 5592 5595 5598 5600 5602 5605 5607 5610 5612 5615 5618 5621 5624 5627 5630 5633 5635 5637 5639 5640 5642 5644 5646 5647 5649 5650 5652 5653 5654 5656 5657 5659 5661 5663 5665 5667 5669 5671 5673 5674 5676 5677 5679 5681 5682 5684 5685 5687 5688
5524 5525 5526 5527 5528 5529 5530 5532 5533 5534 5535 5536 5538 5539 5540 5542 5543 5545 5546 5548 5550 5553 5555 5556 5559 5561 5563 5565 5568 5570 5573 5576 5578 5581 5584 5586 5588 5590 5593 5596 5598 5600 5602 5605 5607 5609 5611 5614 5617 5621 5624 5627 5630 5632 5634 5635 5637 5639 5641 5643 5645 5647 5649 5650 5652 5653 5655 5656 5658 5659 5661 5663 5665 5667 5668 5670 5671 5673 5674 5675 5676 5677 5678 5680 5681 5682 5683
5529 5530 5531 5532 5533 5534 5535 5536 5537 5538 5539 5540 5542 5543 5544 5545 5546 5548 5549 5551 5553 5556 5557 5559 5560 5563 5565 5567 5569 5572 5575 5577 5579 5582 5584 5586 5589 5591 5594 5596 5598 5600 5603 5606 5607 5609 5611 5614 5618 5621 5624 5627 5629 5631 5633 5634 5636 5638 5640 5642 5644 5646 5648 5650 5652 5653 5654 5655 5657 5658 5660 5662 5664 5665 5667 5668 5669 5670 5672 5673 5674 5675 5676 5677 5678 5679 5679
5534 5535 5536 5536 5537 5538 5539 5540 5542 5543 5543 5544 5545 5546 5547 5549 5550 5551 5552 5554 5556 5558 5560 5561 5562 5565 5567 5569 5572 5574 5576 5578 5580 5582 5584 5587 5590 5592 5594 5596 5599 5601 5603 5606 5607 5609 5612 5615 5619 5622 5625 5627 5629 5631 5632 5633 5635 5637 5639 5641 5643 5645 5647 5649 5650 5651 5652 5653 5655 5656 5658 5660 5661 5663 5664 5666 5667 5668 5669 5670 5671 5672 5673 5674 5674 5675 5675
5539 5540 5540 5541 5542 5542 5543 5544 5546 5547 5547 5548 5549 5550 5551 5552 5553 5554 5556 5557 5559 5560 5562 5563 5565 5567 5569 5572 5574 5576 5577 5579 5581 5583 5585 5588 5591 5593 5595 5597 5599 5602 5604 5606 5608 5610 5613 5615 5618 5621 5623 5625 5628 5630 5631 5632 5634 5636 5638 5640 5642 5644 5645 5647 5648 5649 5650 5651 5653 5654 5656 5657 5659 5660 5662 5663 5664 5665 5666 5667 5668 5669 5669 5670 5670 5670 5670
5544 5544 5545 5545 5546 5547 5547 5548 5549 5550 5551 5552 5553 5554 5555 5556 5557 5559 5560 5561 5562 5562 5564 5565 5567 5569 5571 5573 5575 5577 5578 5580 5582 5585 5587 5588 5591 5594 5597 5599 5600 5602 5604 5606 5609 5612 5614 5616 5618 5621 5623 5624 5626 5628 5630 5632 5634 5635 5637 5638 5639 5641 5643 5644 5646 5647 5648 5650 5651 5652 5654 5655 5656 5657 5658 5660 5661 5662 5662 5663 5664 5664 5665 5665 5665 5665 5666
5549 5549 5549 5550 5550 5551 5552 5552 5553 5554 5555 5556 5557 5557 5558 5560 5561 5563 5564 5564 5565 5565 5566 5568 5569 5571 5573 5575 5576 5578 5580 5581 5583 5585 5588 5590 5592 5595 5598 5600 5601 5603 5605 5608 5610 5613 5615 5616 5618 5620 5623 5625 5626 5628 5630 5632 5633 5634 5636 5637 5638 5639 5640 5642 5643 5645 5646 5648 5649 5651 5652 5653 5653 5654 5655 5656 5656 5657 5657 5658 5658 5659 5659 5660 5660 5660 5660
5554 5554 5554 5555 5555 5555 5556 5557 5557 5558 5558 5559 5560 5560 5561 5563 5564 5565 5566 5567 5567 5568 5569 5570 5572 5573 5575 5576 5578 5579 5581 5583 5584 5586 5588 5591 5594 5597 5600 5601 5602 5604 5606 5609 5611 5613 5615 5616 5618 5619 5622 5625 5626 5628 5629 5631 5632 5634 5635 5636 5638 5639 5640 5641 5642 5643 5644 5646 5647 5648 5649 5650 5651 5651 5651 5652 5652 5652 5652 5653 5653 5654 5654 5654 5655 5655 5655
5559 5560 5560 5560 5560 5560 5560 5561 5562 5562 5562 5562 5563 5564 5564 5566 5567 5568 5568 5569 5570 5571 5572 5573 5574 5576 5577 5579 5580 5581 5583 5584 5586 5588 5591 5593 5595 5598 5601 5602 5603 5605 5608 5610 5611 5613 5615 5617 5619 5621 5623 5625 5626 5627 5629 5630 5632 5633 5635 5636 5637 5639 5640 5641 5642 5642 5643 5644 5645 5646 5646 5647 5647 5648 5648 5648 5648 5649 5649 5650 5650 5651 5651 5651 5651 5651 5651
5563 5564 5564 5564 5564 5564 5564 5565 5565 5565 5565 5565 5566 5567 5568 5569 5570 5571 5572 5572 5573 5574 5575 5576 5577 5578 5580 5582 5583 5584 5585 5587 5589 5591 5593 5595 5597 5599 5602 5603 5605 5607 5609 5611 5613 5614 5616 5618 5620 5621 5623 5625 5626 5627 5629 5630 5631 5633 5634 5635 5636 5638 5639 5640 5640 5641 5642 5642 5643 5644 5644 5644 5645 5645 5645 5646 5646 5647 5647 5648 5648 5648 5649 5648 5648 5648 5648
5567 5567 5567 5568 5568 5568 5568 5568 5568 5568 5568 5569 5570 5571 5571 5572 5573 5574 5575 5576 5576 5577 5578 5579 5580 5581 5583 5584 5585 5586 5587 5589 5591 5593 5594 5597 5599 5601 5603 5604 5606 5608 5610 5612 5614 5615 5617 5619 5620 5622 5623 5625 5626 5627 5629 5630 5631 5633 5634 5635 5635 5636 5637 5637 5638 5639 5639 5640 5641 5641 5642 5642 5643 5643 5644 5644 5644 5645 5645 5645 5645 5645 5645 5645 5645 5644 5644
5571 5571 5571 5572 5572 5571 5571 5571 5571 5571 5572 5572 5573 5574 5575 5575 5576 5577 5578 5578 5579 5580 5581 5581 5582 5584 5585 5587 5588 5589 5590 5592 5593 5595 5596 5598 5600 5602 5603 5605 5606 5608 5610 5612 5614 5615 5617 5619 5620 5622 5623 5625 5626 5628 5629 5630 5632 5633 5634 5634 5635 5635 5635 5636 5636 5637 5637 5637 5638 5639 5639 5640 5640 5640 5641 5641 5641 5642 5642 5642 5641 5641 5641 5641 5641 5641 5641